Date,TemperatureHighF,TemperatureAvgF,TemperatureLowF,DewpointHighF,DewpointAvgF,DewpointLowF,HumidityHigh,HumidityAvg,HumidityLow,PressureMaxIn,PressureMinIn,WindSpeedMaxMPH,WindSpeedAvgMPH,GustSpeedMaxMPH,PrecipitationSumIn
2013-1-1,46.8,38.2,17.8,37.9,34.4,30.4,93,86,69,29.86,29.23,37,5,37,0.00
2013-1-2,51.6,45.4,39.2,49.9,43.0,34.9,94,91,83,29.95,29.86,26,6,26,0.28
2013-1-3,51.6,50.4,47.1,49.8,47.0,42.7,94,88,80,30.34,29.94,30,8,30,0.01
2013-1-4,52.3,49.6,47.1,48.7,46.3,42.9,94,89,78,30.41,30.33,28,7,28,0.00
2013-1-5,50.4,48.9,45.7,48.0,45.3,43.5,94,87,81,30.38,30.21,23,7,23,0.02
2013-1-6,48.4,43.4,39.0,44.7,41.4,37.4,94,92,86,30.39,30.17,17,3,17,0.01
2013-1-7,48.4,47.2,45.7,46.6,45.4,44.1,94,93,89,30.13,29.96,15,3,18,0.52
2013-1-8,51.6,46.1,39.6,49.9,44.1,37.4,94,92,85,30.10,29.92,26,4,26,0.09
2013-1-9,46.8,39.1,32.7,43.2,36.8,31.2,94,92,81,30.10,29.99,9,3,9,0.01
2013-1-10,42.4,37.4,30.9,40.8,35.9,29.4,94,94,94,30.00,29.91,7,1,7,0.02
2013-1-11,40.5,38.1,34.2,38.7,36.6,32.6,94,94,94,29.97,29.92,9,1,9,0.01
2013-1-12,41.4,35.3,30.0,39.8,33.2,28.0,94,92,85,30.09,29.91,9,1,9,0.00
2013-1-13,35.8,33.7,32.7,34.2,32.2,31.2,94,94,94,30.09,29.92,9,2,9,0.14
2013-1-14,41.0,35.0,29.3,37.7,32.1,26.0,94,89,80,29.93,29.68,10,2,10,0.06
2013-1-15,44.6,32.6,25.2,40.1,30.0,23.7,94,90,71,29.88,29.76,7,0,7,0.01
2013-1-16,33.1,28.4,23.0,31.4,26.9,21.6,94,94,94,29.94,29.81,1,0,1,0.00
2013-1-17,35.6,32.4,30.9,30.6,28.5,25.0,94,86,69,29.96,29.80,28,2,28,0.00
2013-1-18,37.6,33.4,31.1,31.7,27.7,25.2,94,80,66,29.81,29.55,26,5,26,0.00
2013-1-19,37.9,34.4,32.7,35.4,30.6,27.9,94,86,75,29.71,29.56,23,3,23,0.12
2013-1-20,34.7,33.5,32.5,29.9,26.9,24.8,88,77,71,29.68,29.52,11,2,11,0.00
2013-1-21,34.5,33.6,32.7,32.4,31.1,27.5,94,90,76,29.52,29.47,20,7,20,0.07
2013-1-22,35.4,34.1,32.4,33.9,32.6,30.8,94,94,94,29.81,29.51,20,4,20,0.79
2013-1-23,35.4,32.9,31.6,33.9,31.3,30.1,94,94,94,29.93,29.80,5,0,5,0.14
2013-1-24,38.1,33.8,32.0,36.4,32.1,30.5,94,93,90,30.02,29.92,9,1,9,0.13
2013-1-25,35.1,33.5,32.5,32.8,30.8,28.1,94,90,76,29.93,29.34,16,3,16,0.02
2013-1-26,43.9,37.0,33.1,38.9,34.2,31.6,94,90,74,29.50,28.94,20,3,20,1.03
2013-1-27,46.4,40.3,35.6,44.8,37.4,33.5,94,89,78,29.14,28.72,38,12,38,0.25
2013-1-28,45.3,41.2,37.6,42.9,37.5,34.0,94,87,75,29.27,28.83,38,15,38,0.40
2013-1-29,50.5,44.7,42.8,48.9,40.2,34.3,94,85,66,29.27,28.89,47,12,47,0.76
2013-1-30,45.3,42.2,35.2,38.4,34.8,30.7,93,75,61,29.57,29.05,35,13,35,0.12
2013-1-31,42.3,39.8,37.8,40.2,36.9,32.7,94,90,78,29.59,29.17,32,6,32,0.35
2013-2-1,44.6,38.3,33.3,41.9,34.4,27.5,94,86,77,29.77,29.29,26,5,26,0.04
2013-2-2,34.0,33.0,31.3,28.3,27.2,26.1,84,79,76,29.95,29.77,14,3,14,0.00
2013-2-3,47.7,46.0,44.6,46.0,42.5,38.3,94,88,75,29.62,29.38,28,10,28,0.02
2013-2-4,48.2,37.5,31.3,46.3,33.0,28.9,94,84,65,29.48,29.23,37,7,37,0.22
2013-2-5,43.2,36.7,30.9,37.8,32.1,27.8,93,84,74,29.53,28.99,28,5,28,0.09
2013-2-6,45.0,37.5,34.3,33.4,28.2,24.8,81,69,56,30.07,29.53,22,6,22,0.00
2013-2-7,41.2,36.0,32.7,31.5,28.4,24.6,87,74,64,30.07,29.95,11,2,11,0.01
2013-2-8,46.4,39.1,31.8,35.0,31.8,29.2,93,76,58,30.11,29.99,18,3,18,0.01
2013-2-9,40.6,37.7,36.1,39.1,35.9,34.3,94,93,89,30.07,29.78,5,0,5,0.07
2013-2-10,38.3,37.0,35.4,36.4,34.1,31.2,94,89,77,29.79,29.40,18,5,18,0.14
2013-2-11,37.2,36.2,35.6,35.1,30.1,26.5,94,79,67,29.92,29.48,14,4,14,0.07
2013-2-12,37.9,36.2,35.4,29.3,28.1,26.8,77,72,68,30.06,29.92,14,3,14,0.00
2013-2-13,39.4,34.5,31.6,37.8,31.0,24.0,94,87,66,30.03,29.47,17,4,17,0.64
2013-2-14,51.6,43.0,38.3,43.0,39.3,36.7,94,87,69,29.75,29.49,23,6,23,0.01
2013-2-15,54.3,42.7,34.7,42.2,37.3,31.7,94,82,59,30.07,29.74,17,3,17,0.00
2013-2-16,46.6,40.2,30.7,43.0,37.9,28.7,94,91,86,30.08,30.05,11,2,11,0.00
2013-2-17,54.5,42.0,29.3,43.8,36.6,26.6,93,82,59,30.08,30.02,14,2,14,0.00
2013-2-18,55.9,35.8,26.6,50.3,30.2,25.1,94,82,46,30.08,30.04,8,1,8,0.00
2013-2-19,51.4,36.2,24.8,42.0,32.0,22.6,94,85,62,30.12,30.05,7,1,7,0.00
2013-2-20,41.0,39.9,38.8,38.7,37.3,33.1,94,91,76,30.25,30.11,16,3,16,0.00
2013-2-21,37.9,35.4,33.4,27.4,26.3,24.8,75,69,63,30.30,30.25,15,4,15,0.00
2013-2-23,44.1,35.5,31.3,31.6,27.4,23.1,93,74,53,30.36,30.22,8,1,8,0.00
2013-2-24,44.4,35.8,29.7,36.7,32.5,27.5,94,88,71,30.46,30.35,9,1,9,0.02
2013-2-25,51.6,35.4,27.0,44.9,30.6,25.3,94,84,57,30.61,30.45,10,1,10,0.01
2013-2-26,54.7,38.7,30.9,46.1,34.0,27.8,94,85,50,30.66,30.60,15,2,15,0.00
2013-2-27,55.2,35.6,24.3,39.1,29.0,22.8,94,80,47,30.66,30.54,10,1,10,0.01
2013-2-28,60.8,39.5,26.1,43.8,33.4,24.3,94,81,50,30.54,30.47,9,1,9,0.00
2013-3-1,55.6,38.9,29.1,39.5,31.6,24.9,93,77,50,30.51,30.38,11,1,11,0.00
2013-3-2,60.4,44.6,29.3,42.1,35.9,26.5,94,73,49,30.38,30.21,11,2,11,0.00
2013-3-3,48.4,43.6,41.0,41.7,37.8,35.0,89,80,68,30.23,30.05,15,1,15,0.00
2013-3-4,48.2,40.1,30.2,36.1,33.1,27.3,89,77,56,30.06,29.71,12,1,12,0.00
2013-3-5,53.6,37.6,27.9,43.0,31.3,25.5,94,80,47,29.71,29.61,10,1,10,0.00
2013-3-6,41.5,38.6,33.3,38.0,35.6,30.4,93,89,84,29.71,29.64,10,2,10,0.00
2013-3-7,42.3,40.6,39.4,40.7,38.9,36.5,94,94,88,29.65,29.57,20,5,20,0.14
2013-3-8,39.7,38.1,36.9,37.1,36.1,35.2,94,93,86,29.73,29.58,16,6,16,0.18
2013-3-9,38.3,36.7,35.4,36.4,32.8,25.8,94,86,68,29.91,29.72,23,5,23,0.08
2013-3-10,39.9,32.7,27.0,32.6,26.7,20.8,93,79,62,30.09,29.90,18,4,18,0.07
2013-3-11,37.6,29.4,22.3,27.4,21.9,16.7,93,75,51,30.12,30.08,16,3,16,0.08
2013-3-12,42.3,36.3,33.1,31.7,27.5,25.7,76,71,64,29.88,29.85,9,2,9,0.00
2013-3-13,48.0,36.3,28.4,28.5,24.6,21.0,77,64,43,29.95,29.82,14,3,14,0.00
2013-3-14,43.5,36.2,26.4,37.9,30.9,20.5,93,81,73,29.94,29.54,20,5,20,0.00
2013-3-15,47.5,40.2,29.1,39.3,34.5,26.0,90,81,66,29.54,29.32,23,7,23,0.01
2013-3-16,39.7,34.0,27.0,38.2,32.3,25.2,94,94,90,29.35,29.14,14,2,14,0.20
2013-3-17,41.4,37.3,30.2,39.8,35.4,28.7,94,93,84,29.27,29.11,20,3,20,0.15
2013-3-18,39.2,35.7,31.8,37.6,33.9,30.3,94,93,89,29.52,29.26,28,5,28,0.08
2013-3-19,34.9,33.3,32.0,33.3,31.8,30.5,94,94,94,29.67,29.51,20,3,20,0.20
2013-3-20,38.7,34.2,30.6,34.4,31.0,27.8,94,88,69,30.04,29.66,15,3,15,0.19
2013-3-21,44.1,34.8,28.0,35.4,28.9,25.2,94,80,55,30.08,30.02,24,4,24,0.08
2013-3-22,35.8,34.5,32.9,32.5,28.2,26.1,93,78,70,30.06,29.98,24,10,24,0.01
2013-3-23,34.2,33.5,32.9,28.7,26.0,22.0,82,74,63,30.20,30.05,23,10,23,0.00
2013-3-24,35.6,34.0,32.9,26.7,23.9,21.9,74,66,59,30.29,30.19,20,8,20,0.00
2013-3-25,36.7,34.3,32.9,27.3,25.1,23.2,78,69,62,30.30,30.24,20,5,20,0.00
2013-3-26,41.0,34.0,28.4,30.7,26.4,20.8,89,74,61,30.25,30.14,16,3,16,0.02
2013-3-27,42.4,33.5,29.1,33.4,27.9,24.6,94,81,57,30.14,30.07,15,2,15,0.06
2013-3-28,45.5,35.8,28.4,31.6,27.6,23.1,91,73,52,30.08,30.01,11,2,11,0.01
2013-3-29,43.0,33.6,26.4,33.5,26.5,21.3,91,76,55,30.02,29.91,10,2,10,0.01
2013-3-30,47.8,32.8,24.1,30.6,24.4,19.5,91,73,44,29.99,29.92,7,1,7,0.00
2013-3-31,45.9,33.2,21.2,34.1,23.1,17.8,94,69,42,30.00,29.97,15,2,15,0.00
2013-4-1,45.5,34.3,23.2,29.0,23.5,18.4,86,66,45,30.07,29.98,15,2,15,0.00
2013-4-2,47.1,37.3,27.7,32.3,26.5,20.3,88,66,47,30.22,30.06,12,2,12,0.00
2013-4-3,52.9,37.7,25.9,36.7,27.9,23.9,94,71,41,30.28,30.22,11,2,11,0.01
2013-4-4,51.8,40.7,30.9,35.8,30.3,21.8,89,69,34,30.26,30.20,15,3,16,0.00
2013-4-5,48.7,38.6,27.7,34.4,28.6,21.9,93,69,47,30.23,30.19,10,2,10,0.01
2013-4-6,54.0,38.6,24.8,33.8,27.5,21.5,91,68,39,30.23,30.14,20,3,20,0.00
2013-4-7,37.8,35.8,34.0,35.9,32.9,28.8,94,89,74,30.15,29.98,9,2,9,0.07
2013-4-8,46.8,38.0,33.6,37.3,30.2,24.4,94,76,52,29.98,29.73,18,4,18,0.11
2013-4-9,47.7,38.9,32.7,32.6,27.8,23.8,85,66,47,29.73,29.65,15,4,15,0.00
2013-4-10,43.9,38.8,33.6,37.6,34.5,29.5,94,85,74,29.69,29.58,15,3,15,0.00
2013-4-11,37.9,36.3,34.5,36.4,34.7,33.0,94,94,93,29.59,29.54,5,1,7,0.00
2013-4-12,46.9,40.7,37.0,37.6,34.1,31.1,88,78,68,29.62,29.39,8,2,8,0.01
2013-4-13,57.0,44.3,35.8,44.7,38.3,33.8,94,81,50,29.72,29.43,17,3,17,0.04
2013-4-14,58.1,53.0,46.8,49.8,46.0,1.8,93,78,62,29.46,29.34,162,18,162,0.17
2013-4-15,59.0,51.9,48.2,48.7,42.8,38.1,87,72,52,29.71,29.40,39,15,40,0.04
2013-4-16,53.1,48.8,44.1,44.4,40.1,34.5,91,73,50,29.77,29.31,52,18,52,0.21
2013-4-17,52.5,45.2,35.6,49.8,40.7,31.3,94,84,69,29.80,29.06,45,9,45,0.44
2013-4-18,54.7,48.3,42.6,45.7,40.5,33.5,94,75,58,29.86,29.03,42,12,42,0.13
2013-4-19,58.5,47.4,35.8,35.9,32.7,29.8,80,58,37,30.38,29.86,18,4,18,0.00
2013-4-20,57.0,46.8,33.4,41.0,36.0,29.4,90,67,47,30.38,30.10,32,9,32,0.00
2013-4-21,53.6,47.1,39.7,42.7,38.9,33.6,84,73,53,30.10,29.79,28,11,28,0.01
2013-4-22,57.4,47.1,40.1,46.9,39.6,35.2,88,76,53,29.80,29.48,48,11,48,0.01
2013-4-23,58.5,49.7,44.4,40.7,38.6,35.7,85,66,47,30.00,29.65,35,8,35,0.00
2013-4-24,59.2,49.4,43.0,49.3,39.0,30.2,94,70,39,30.17,29.83,17,4,17,0.33
2013-4-25,54.5,45.4,38.8,39.2,35.5,30.6,81,69,52,30.16,29.96,23,6,23,0.00
2013-4-26,54.9,41.8,34.5,39.3,34.4,30.6,90,76,50,29.98,29.79,24,4,24,0.13
2013-4-27,57.2,46.1,36.3,36.8,31.0,24.3,87,59,31,30.08,29.70,23,4,23,0.00
2013-4-28,56.1,45.8,38.8,43.9,36.9,32.1,93,72,50,29.90,29.53,39,12,39,0.02
2013-4-29,57.2,46.9,38.5,37.2,34.1,30.8,85,63,39,30.04,29.53,26,8,26,0.00
2013-4-30,58.5,47.5,35.1,33.7,29.9,23.5,77,53,28,30.26,30.04,25,4,25,0.00
2013-5-1,59.5,47.9,41.9,43.4,36.0,28.5,86,65,34,30.24,30.04,28,7,28,0.04
2013-5-2,57.4,47.4,36.9,43.2,36.7,30.4,87,68,39,30.24,29.94,24,7,24,0.00
2013-5-3,52.9,49.1,42.1,49.1,45.3,36.8,94,87,79,29.94,29.59,40,11,40,0.56
2013-5-4,53.4,45.2,36.7,41.5,37.1,33.2,88,74,51,29.83,29.64,35,10,35,0.00
2013-5-5,62.4,54.3,48.0,51.1,46.3,40.7,85,75,57,29.99,29.83,30,10,30,0.00
2013-5-6,58.5,52.6,46.0,49.9,47.0,42.2,89,81,73,30.02,29.95,23,6,23,0.00
2013-5-7,70.9,55.2,38.5,50.0,43.4,36.9,94,68,40,30.03,29.86,12,3,12,0.00
2013-5-8,60.1,49.7,45.7,49.8,44.8,32.0,94,83,65,30.09,29.47,25,4,25,0.01
2013-5-9,58.1,47.2,40.8,45.1,41.4,35.9,94,81,46,29.51,29.33,22,3,22,0.26
2013-5-10,59.9,49.0,41.5,46.5,42.4,36.3,94,79,52,29.58,29.33,26,6,26,0.12
2013-5-11,56.5,47.4,41.7,46.3,41.4,37.7,92,80,65,29.68,29.43,35,7,35,0.07
2013-5-12,51.8,47.3,41.4,48.7,41.5,36.2,92,81,61,29.73,29.50,30,7,30,0.02
2013-5-13,49.6,43.1,36.3,41.3,36.6,32.9,92,78,64,29.55,29.35,35,12,35,0.13
2013-5-14,54.0,45.9,39.6,42.6,37.8,34.4,86,74,53,29.38,29.30,33,11,35,0.04
2013-5-15,60.6,45.2,35.2,45.5,38.9,31.8,94,79,53,29.38,29.25,11,2,11,0.22
2013-5-16,59.4,47.1,36.3,42.0,38.1,32.6,94,73,45,29.68,29.33,22,4,22,0.00
2013-5-17,66.4,51.6,40.1,44.8,40.0,36.0,94,68,37,29.83,29.68,10,2,10,0.00
2013-5-18,59.5,53.0,50.0,53.2,48.6,41.0,94,85,71,29.81,29.67,24,4,24,0.35
2013-5-19,61.0,53.0,48.4,58.5,51.1,46.6,94,93,87,29.94,29.77,8,1,8,0.04
2013-5-20,70.0,60.5,50.5,60.8,55.9,48.9,94,85,68,29.99,29.88,9,2,9,0.06
2013-5-21,64.2,52.9,44.6,50.4,44.4,40.2,94,75,50,30.06,29.98,14,2,14,0.01
2013-5-22,61.2,50.2,39.7,43.7,36.5,27.9,86,62,30,30.05,29.96,22,5,22,0.01
2013-5-23,52.9,45.1,39.4,37.2,32.6,29.7,76,62,47,29.97,29.85,20,7,20,0.00
2013-5-24,60.6,49.8,39.7,41.1,36.9,31.7,84,62,41,30.19,29.86,16,5,16,0.00
2013-5-25,67.8,52.9,34.5,44.8,37.1,32.2,94,60,29,30.18,30.06,24,4,24,0.00
2013-5-26,64.8,54.0,42.8,46.6,42.7,35.4,81,66,49,30.08,29.73,18,5,18,0.00
2013-5-27,54.0,50.6,48.0,45.2,42.7,36.4,83,74,59,29.73,29.43,23,8,23,0.05
2013-5-28,63.7,51.6,44.4,48.3,44.5,41.2,93,77,55,29.78,29.50,15,2,15,0.04
2013-5-29,70.5,55.8,41.2,54.6,46.4,39.0,94,72,55,29.88,29.77,11,3,11,0.00
2013-5-30,68.7,59.4,54.9,52.4,45.8,39.1,72,61,51,30.01,29.84,17,4,17,0.01
2013-5-31,72.9,57.1,45.5,52.9,47.7,42.3,94,73,36,30.14,30.01,14,4,14,0.00
2013-6-1,63.3,53.3,46.0,51.2,43.2,35.3,94,71,44,30.25,30.13,23,4,23,0.14
2013-6-2,69.1,54.6,37.9,43.2,38.5,32.1,81,57,34,30.40,30.24,17,3,17,0.00
2013-6-3,72.3,57.0,43.0,54.3,47.4,38.3,91,71,51,30.48,30.39,15,2,15,0.00
2013-6-4,71.6,60.6,50.9,52.9,48.4,44.8,87,66,45,30.48,30.30,12,2,12,0.00
2013-6-5,64.4,53.4,48.2,53.7,48.0,43.7,94,82,63,30.30,30.15,10,2,10,0.02
2013-6-6,70.0,56.4,48.2,51.6,47.9,44.1,94,75,50,30.25,30.16,15,2,15,0.00
2013-6-7,65.8,53.9,43.9,50.7,46.8,39.8,94,78,55,30.32,30.24,9,2,9,0.00
2013-6-8,72.9,56.2,41.2,53.7,45.7,39.0,94,71,42,30.31,30.12,12,2,12,0.00
2013-6-9,66.2,55.1,48.9,51.5,48.0,45.3,93,78,58,30.13,30.00,10,2,10,0.00
2013-6-10,64.0,53.1,45.1,50.2,46.2,40.8,88,78,59,30.01,29.90,9,2,9,0.00
2013-6-11,66.2,53.4,42.6,55.4,48.4,39.9,94,84,57,29.90,29.68,12,2,12,0.05
2013-6-12,66.4,57.0,50.4,56.6,50.6,44.4,94,80,60,29.68,29.54,24,5,24,0.12
2013-6-13,67.8,55.7,46.8,48.0,43.8,40.3,89,66,43,29.73,29.51,22,5,22,0.00
2013-6-14,65.8,55.5,45.9,51.6,45.4,41.3,91,70,52,29.78,29.58,23,7,23,0.11
2013-6-15,56.8,51.4,46.6,49.0,45.7,41.1,94,82,59,29.58,29.40,28,7,28,0.18
2013-6-16,63.5,54.4,46.0,56.5,47.9,44.4,94,80,61,29.97,29.52,10,2,10,0.00
2013-6-17,73.4,59.1,50.2,56.7,50.7,47.2,94,75,51,30.05,29.97,12,2,12,0.00
2013-6-18,71.1,59.9,50.5,56.9,52.8,47.0,94,79,56,30.02,29.89,8,1,8,0.00
2013-6-19,70.3,58.9,49.8,48.8,46.3,43.4,88,65,40,30.00,29.91,24,4,24,0.00
2013-6-20,75.2,61.0,48.0,54.8,50.0,43.0,87,69,48,30.00,29.78,9,2,9,0.00
2013-6-21,67.8,59.9,54.7,60.6,52.6,44.3,94,78,53,29.78,29.58,16,2,16,0.08
2013-6-22,62.2,55.6,50.7,56.1,50.0,46.1,94,82,63,29.58,29.26,22,5,22,0.33
2013-6-23,64.9,55.3,48.2,55.7,48.0,42.1,89,77,62,29.88,29.32,22,6,22,0.09
2013-6-24,65.1,55.4,47.7,46.1,42.6,41.0,83,63,44,30.22,29.88,18,4,18,0.04
2013-6-25,63.5,54.8,41.4,48.6,44.0,36.8,87,68,48,30.34,30.22,15,3,15,0.00
2013-6-26,69.8,57.9,47.3,48.4,45.7,42.7,88,66,40,30.39,30.34,12,3,12,0.00
2013-6-27,65.3,55.3,45.9,56.1,50.0,42.7,93,83,69,30.38,30.07,17,3,17,0.05
2013-6-28,69.3,58.3,51.1,57.6,52.2,41.4,94,81,58,30.08,29.83,33,6,33,0.14
2013-6-29,64.0,55.2,48.7,53.7,46.0,41.7,91,72,51,30.09,30.00,25,6,25,0.00
2013-6-30,63.9,58.1,52.2,55.9,50.7,44.5,89,76,63,30.05,29.79,35,10,35,0.01
2013-7-1,66.0,56.0,47.1,46.3,44.1,40.4,89,67,40,29.85,29.78,24,6,24,0.00
2013-7-2,56.1,52.1,45.5,52.6,47.9,40.3,94,86,77,29.84,29.42,17,3,17,0.14
2013-7-3,66.9,59.3,53.1,56.6,52.3,48.7,94,79,59,29.77,29.42,25,5,25,0.01
2013-7-4,66.4,59.9,52.9,60.6,51.7,44.8,94,75,52,30.09,29.68,26,8,26,0.21
2013-7-5,71.6,59.8,52.2,53.2,49.8,45.7,92,71,50,30.33,30.09,28,6,28,0.01
2013-7-6,75.4,62.6,48.4,54.0,51.0,46.3,94,69,43,30.38,30.25,33,6,33,0.00
2013-7-7,78.8,65.8,55.6,57.8,54.8,51.9,90,69,42,30.59,30.38,14,4,14,0.00
2013-7-8,79.9,65.0,55.0,61.9,56.6,53.1,94,76,51,30.60,30.44,9,2,9,0.00
2013-7-9,89.1,69.0,56.1,63.7,57.4,52.4,94,70,36,30.44,30.32,11,3,11,0.00
2013-7-10,69.3,59.7,55.0,55.8,52.7,49.9,89,78,59,30.41,30.33,12,2,12,0.00
2013-7-11,78.3,61.9,53.1,62.6,55.0,49.3,94,79,55,30.35,29.85,10,2,10,0.00
2013-7-12,85.5,69.5,52.5,63.7,57.6,50.8,94,69,42,30.21,29.79,18,3,18,0.00
2013-7-13,76.3,62.6,55.0,61.9,55.4,51.6,92,78,58,30.30,30.19,12,2,12,0.00
2013-7-14,74.1,62.4,53.8,56.5,51.5,45.8,94,70,45,30.29,30.12,24,5,24,0.00
2013-7-15,72.3,62.9,53.1,55.8,52.6,46.4,90,70,54,30.16,30.11,30,7,30,0.00
2013-7-16,74.5,66.4,56.5,59.8,56.0,50.6,88,70,49,30.21,30.14,22,6,22,0.00
2013-7-17,74.1,65.4,53.6,56.7,54.4,50.2,94,70,47,30.30,30.20,24,4,24,0.00
2013-7-18,86.5,71.9,60.8,64.5,59.2,54.1,88,66,42,30.35,30.28,18,4,18,0.00
2013-7-19,81.5,66.2,53.8,60.6,55.0,50.9,94,70,42,30.38,30.34,12,2,12,0.00
2013-7-20,78.3,64.1,55.6,59.9,55.9,52.3,94,76,51,30.35,30.27,12,2,12,0.00
2013-7-21,74.3,61.9,56.7,56.6,53.8,51.6,86,76,52,30.29,30.12,11,2,11,0.00
2013-7-22,65.3,60.4,57.4,59.2,56.6,55.1,94,88,76,30.13,29.98,6,1,6,0.02
2013-7-23,78.1,63.7,59.4,70.9,60.7,56.7,94,90,71,29.99,29.83,8,1,8,0.39
2013-7-24,80.1,66.3,58.5,65.0,60.0,56.8,94,82,54,29.88,29.84,14,2,14,0.04
2013-7-25,67.1,61.6,57.2,65.3,59.9,55.5,94,94,91,29.87,29.78,7,1,7,0.17
2013-7-26,75.7,63.5,55.2,63.9,57.8,52.9,94,83,54,29.82,29.79,16,2,16,0.01
2013-7-27,78.1,61.7,49.6,59.8,54.9,48.0,94,81,46,29.81,29.66,11,2,11,0.01
2013-7-28,63.5,59.6,53.8,59.8,56.8,52.1,94,91,77,29.66,29.48,14,2,14,0.39
2013-7-29,72.3,60.1,50.4,64.4,56.6,48.7,94,89,64,29.69,29.59,14,3,14,0.34
2013-7-30,70.5,59.5,50.2,57.7,52.6,48.3,94,80,49,29.75,29.69,22,5,22,0.07
2013-7-31,71.1,59.7,50.4,56.2,51.5,48.7,94,77,48,29.85,29.75,18,3,18,0.07
2013-8-1,74.3,63.2,57.0,66.1,60.2,55.3,94,90,71,29.76,29.59,14,3,14,0.27
2013-8-2,74.7,65.9,59.9,61.6,56.2,49.1,94,73,46,29.59,29.52,34,8,34,0.04
2013-8-3,66.0,60.6,56.3,53.2,50.4,46.7,86,70,51,29.81,29.54,31,11,31,0.00
2013-8-4,70.7,61.3,50.0,54.8,50.2,46.2,93,69,45,29.86,29.81,25,7,25,0.00
2013-8-5,67.5,58.1,49.8,57.6,52.6,46.6,94,82,68,29.85,29.71,8,1,8,0.00
2013-8-6,68.0,56.8,45.5,50.3,47.1,43.2,94,72,49,29.95,29.80,15,3,15,0.00
2013-8-7,71.4,59.2,49.1,55.5,50.8,46.8,94,76,46,30.04,29.93,11,1,11,0.00
2013-8-8,76.3,60.5,52.5,59.6,54.1,50.8,94,81,47,30.04,29.89,14,2,14,0.07
2013-8-9,68.2,59.8,52.0,58.5,52.7,45.1,94,78,55,30.06,29.84,18,3,18,0.00
2013-8-10,65.5,58.1,52.0,49.9,47.5,43.1,82,68,55,30.07,29.94,20,4,20,0.00
2013-8-11,67.6,57.1,49.3,51.5,48.0,44.3,91,73,45,29.94,29.80,24,6,24,0.00
2013-8-12,70.3,57.6,50.4,52.3,47.8,44.7,92,72,43,29.97,29.79,14,4,14,0.00
2013-8-13,67.3,58.2,48.0,47.7,45.8,43.1,84,65,44,30.07,29.97,11,4,11,0.00
2013-8-14,61.9,55.5,48.9,56.1,48.7,43.7,85,78,71,30.10,29.90,7,2,9,0.00
2013-8-15,70.5,63.0,59.5,63.0,59.6,56.0,94,89,72,29.89,29.69,18,6,18,0.13
2013-8-16,71.2,60.3,51.6,59.8,53.3,48.3,94,79,53,29.83,29.69,26,5,26,0.00
2013-8-17,69.1,58.4,50.7,62.1,53.8,47.9,94,85,61,29.82,29.35,18,6,18,0.21
2013-8-18,63.9,56.6,52.2,50.9,47.9,45.5,87,73,56,29.76,29.40,20,8,20,0.01
2013-8-19,68.4,57.6,50.0,51.9,48.3,45.2,90,72,50,30.13,29.75,30,6,30,0.00
2013-8-20,66.6,57.8,49.1,55.7,51.7,44.8,94,81,59,30.20,30.11,18,4,18,0.11
2013-8-21,72.5,62.8,55.8,62.3,56.8,54.1,94,82,62,30.11,29.98,20,3,20,0.06
2013-8-22,68.7,60.4,56.5,63.2,57.4,54.6,94,90,75,30.10,30.00,6,1,6,0.07
2013-8-23,71.2,61.6,51.3,64.4,57.6,49.6,94,87,73,30.00,29.84,8,1,8,0.01
2013-8-24,67.5,59.9,55.6,57.9,55.3,53.7,94,85,68,29.94,29.85,9,1,9,0.00
2013-8-25,75.6,62.1,53.8,62.6,57.3,52.1,94,85,61,30.14,29.93,10,1,10,0.01
2013-8-26,71.1,57.1,52.9,64.3,54.8,51.2,94,92,68,30.15,30.11,9,1,9,0.00
2013-8-27,74.5,60.8,50.9,58.7,54.2,49.2,94,80,56,30.19,30.04,18,3,18,0.00
2013-8-28,68.2,57.8,50.4,56.0,50.1,43.1,88,76,64,30.20,30.05,17,2,17,0.00
2013-8-29,56.1,53.4,50.0,54.4,48.7,43.6,94,84,78,30.05,29.97,14,4,14,0.00
2013-8-30,66.6,58.2,47.3,58.4,52.1,38.0,92,80,67,30.02,29.77,28,7,28,0.00
2013-8-31,64.2,53.3,44.2,45.6,42.2,37.1,89,68,40,30.22,30.02,23,5,23,0.00
2013-9-1,58.8,55.6,52.2,54.1,48.6,43.8,86,77,66,30.21,30.02,32,9,32,0.00
2013-9-2,70.9,63.0,58.3,59.0,56.2,54.1,88,79,64,30.19,29.99,32,11,32,0.00
2013-9-3,73.8,63.8,59.5,58.7,57.1,54.1,93,80,52,30.21,30.16,25,8,25,0.00
2013-9-4,70.5,59.8,49.5,56.2,49.7,44.3,94,71,47,30.15,29.89,24,6,24,0.00
2013-9-5,68.9,57.0,45.9,51.9,46.8,40.2,89,71,36,29.89,29.82,22,3,22,0.00
2013-9-6,59.7,51.5,45.9,48.5,45.5,42.3,94,81,56,29.89,29.84,12,2,12,0.45
2013-9-7,65.7,53.4,46.4,54.5,48.0,43.2,94,83,61,29.91,29.72,20,4,20,0.21
2013-9-8,67.8,51.8,39.7,48.5,44.2,38.2,94,78,44,29.96,29.89,12,2,12,0.01
2013-9-9,73.0,53.1,44.2,54.4,47.1,42.1,94,82,43,30.11,29.91,6,1,6,0.05
2013-9-10,64.6,53.5,48.6,47.6,44.2,41.8,86,71,53,30.14,30.11,22,5,22,0.00
2013-9-11,63.1,56.2,51.3,54.9,50.8,45.0,94,82,72,30.19,30.03,8,2,8,0.06
2013-9-12,68.4,59.4,54.5,58.7,54.8,51.9,94,86,61,30.04,29.83,17,5,17,0.06
2013-9-13,57.0,52.3,45.5,55.1,47.2,42.0,94,83,67,30.06,29.91,7,2,7,0.04
2013-9-14,66.9,53.1,43.2,45.1,42.5,40.4,93,69,42,30.02,29.87,12,3,12,0.00
2013-9-15,58.6,50.8,42.1,56.9,45.4,38.2,94,82,61,29.87,29.11,35,10,35,0.44
2013-9-16,57.6,47.3,40.1,44.7,40.2,37.1,90,77,59,29.26,29.19,22,7,22,0.00
2013-9-17,59.5,50.0,43.3,44.9,41.0,37.6,84,71,56,29.33,29.21,33,6,33,0.00
2013-9-18,61.5,49.2,39.9,45.5,40.6,35.8,90,74,47,29.67,29.33,20,4,20,0.00
2013-9-19,52.2,47.5,44.2,50.5,45.3,40.0,94,92,85,29.72,29.49,15,2,15,0.35
2013-9-20,48.2,46.6,44.6,46.6,45.0,43.0,94,94,94,29.82,29.72,6,1,6,0.00
2013-9-21,61.2,56.5,50.4,58.8,51.9,47.2,93,85,79,30.04,29.97,17,5,17,0.00
2013-9-22,70.0,62.7,56.3,59.2,56.3,52.9,94,80,62,30.24,30.03,22,8,22,0.00
2013-9-23,65.1,56.5,48.4,58.5,53.0,46.7,94,88,74,30.24,30.08,11,2,11,0.00
2013-9-24,61.0,54.3,46.9,59.2,52.6,45.3,94,94,94,30.08,29.93,6,0,6,0.00
2013-9-25,54.9,53.5,51.3,53.2,51.8,49.6,94,94,94,29.93,29.88,9,1,9,0.00
2013-9-26,64.0,49.8,39.7,56.0,45.5,38.2,94,86,55,30.09,30.03,9,1,9,0.00
2013-9-27,60.6,54.8,50.7,58.5,52.1,49.1,94,91,82,30.03,29.91,7,1,7,0.00
2013-9-28,74.5,57.9,51.1,66.7,52.5,48.7,94,84,55,29.90,29.83,6,1,6,0.00
2013-9-29,63.3,52.8,45.0,55.6,49.1,43.3,94,88,66,29.93,29.89,12,2,12,0.00
2013-9-30,62.6,54.4,51.6,52.3,49.9,47.4,93,85,66,29.91,29.82,14,4,14,0.00
2013-10-1,59.2,53.0,49.1,49.4,46.7,43.5,89,79,63,29.90,29.83,10,4,10,0.00
2013-10-2,52.9,52.5,52.0,50.0,48.8,47.9,90,87,85,29.85,29.79,11,4,11,0.00
2013-10-3,62.1,56.1,53.6,60.3,54.4,51.9,94,94,94,29.76,29.51,10,3,10,0.00
2013-10-4,63.7,56.9,51.6,61.6,54.9,49.9,94,93,84,29.76,29.50,14,2,14,0.06
2013-10-5,61.2,54.1,48.0,54.0,50.2,46.2,94,87,73,30.04,29.76,23,3,23,0.00
2013-10-6,61.3,58.1,52.9,59.1,55.7,50.2,94,92,82,30.04,29.98,17,6,17,0.00
2013-10-7,66.0,61.5,58.6,60.0,57.1,54.4,94,86,71,30.02,29.94,28,8,28,0.02
2013-10-8,63.0,56.5,50.7,57.8,52.1,44.8,94,86,73,30.09,29.92,23,7,23,0.00
2013-10-9,56.5,48.6,42.6,47.1,39.5,32.1,94,72,45,30.08,29.85,31,7,31,0.02
2013-10-10,42.6,42.2,41.9,32.8,32.4,31.9,69,68,66,30.10,30.08,16,6,16,0.00
2013-10-11,51.8,46.7,42.1,41.6,38.6,34.2,79,73,66,30.48,30.38,7,2,7,0.00
2013-10-12,58.1,49.0,42.6,47.6,43.7,38.9,94,82,67,30.45,30.25,8,2,8,0.00
2013-10-13,58.1,49.2,44.1,49.7,45.9,42.3,94,89,70,30.25,30.01,14,2,14,0.15
2013-10-14,54.1,49.6,46.6,52.5,48.0,44.9,94,94,94,30.01,29.90,9,1,9,0.07
2013-10-15,47.7,47.1,46.0,46.0,45.4,44.4,94,94,94,29.91,29.86,6,1,6,0.00
2013-10-16,51.1,46.2,39.2,49.4,44.6,37.6,94,94,94,29.95,29.55,12,1,12,0.46
2013-10-17,54.9,48.0,45.1,53.2,46.4,43.5,94,94,94,29.94,29.58,7,1,7,0.19
2013-10-18,52.3,49.6,46.9,50.7,47.9,45.3,94,94,94,29.98,29.68,14,2,14,0.39
2013-10-19,54.3,52.3,49.1,52.6,50.6,47.3,94,94,94,29.68,29.42,17,2,17,0.35
2013-10-20,62.6,51.7,44.4,60.9,50.0,42.8,94,94,90,29.45,29.38,8,1,8,0.04
2013-10-21,56.1,52.4,49.5,52.9,50.5,47.8,94,93,88,29.48,29.24,12,2,12,0.39
2013-10-22,58.3,55.0,50.7,56.4,53.3,49.1,94,94,94,29.24,29.07,11,3,11,0.14
2013-10-23,58.5,51.3,43.9,55.1,47.3,38.5,94,86,72,29.50,28.96,28,5,28,0.00
2013-10-24,59.4,46.5,40.6,47.2,41.8,37.1,94,84,59,29.87,29.49,18,3,18,0.00
2013-10-25,56.7,51.8,45.7,55.0,50.1,44.1,94,94,94,29.83,29.26,14,4,14,0.38
2013-10-26,54.7,51.2,46.4,53.0,48.4,44.8,94,90,75,29.39,29.10,24,7,24,0.15
2013-10-27,53.8,47.8,40.8,48.7,44.8,39.2,94,89,75,29.12,28.78,38,10,38,0.17
2013-10-28,56.5,48.3,44.2,48.9,44.8,41.3,94,88,64,29.26,28.84,23,6,23,0.02
2013-10-29,55.6,45.9,40.6,42.6,39.6,35.3,92,79,58,29.80,29.26,20,5,20,0.00
2013-10-30,52.9,44.7,34.2,50.0,41.2,32.0,94,88,71,29.87,29.54,28,5,28,0.06
2013-10-31,54.7,45.7,38.3,44.5,41.7,36.6,94,87,65,29.75,29.53,37,7,37,0.08
2013-11-1,52.2,44.0,34.3,42.9,39.1,32.5,94,83,66,29.54,29.49,33,7,33,0.01
2013-11-2,45.5,39.6,31.5,43.9,38.0,29.9,94,94,94,29.50,28.79,18,2,18,0.21
2013-11-3,53.1,43.2,35.6,40.3,35.7,31.1,94,76,44,29.21,28.84,23,6,23,0.01
2013-11-4,56.7,40.0,28.8,40.0,32.7,25.6,94,77,49,29.31,29.14,14,2,14,0.00
2013-11-5,51.6,35.2,25.7,49.2,32.8,24.2,94,91,69,29.28,29.11,14,2,14,0.00
2013-11-6,46.6,38.7,32.0,42.9,36.6,30.5,94,92,84,29.30,29.16,16,3,16,0.01
2013-11-7,48.2,42.1,36.9,42.1,38.0,34.8,94,86,69,29.41,29.29,34,10,34,0.17
2013-11-8,52.0,42.0,34.5,44.2,38.9,-39.5,94,89,68,29.48,29.38,74,4,74,0.01
2013-11-9,44.8,36.1,30.0,40.7,33.7,28.5,94,91,78,29.59,29.43,14,2,14,0.01
2013-11-10,58.3,38.7,29.3,40.2,32.7,27.8,94,81,47,30.07,29.58,14,2,14,0.00
2013-11-11,56.3,45.4,36.0,53.8,42.6,34.4,94,90,77,29.97,29.76,23,3,23,0.08
2013-11-12,49.5,43.1,38.1,44.2,39.1,35.1,94,86,68,30.29,29.96,24,4,24,0.05
2013-11-13,47.7,43.8,36.0,44.8,40.4,-4.8,94,88,70,30.31,29.70,153,8,153,0.05
2013-11-14,51.3,43.4,38.3,43.5,34.0,29.4,92,70,52,30.41,29.70,20,5,20,0.00
2013-11-15,51.6,46.3,38.1,48.4,42.2,31.3,93,86,70,30.40,30.26,25,6,25,0.00
2013-11-16,52.9,49.4,41.0,49.1,45.7,37.4,94,87,77,30.28,30.10,31,8,31,0.00
2013-11-17,56.5,39.4,29.8,52.2,36.6,28.3,94,90,69,30.31,29.86,5,0,5,0.04
2013-11-18,52.2,38.5,31.6,48.0,35.3,27.2,94,89,70,29.86,29.69,14,2,14,0.00
2013-11-19,44.6,35.1,27.1,38.0,28.2,23.3,94,77,48,29.95,29.50,28,5,28,0.02
2013-11-20,46.2,39.9,35.6,41.0,34.0,29.1,94,79,69,29.74,29.31,34,7,34,0.07
2013-11-21,41.0,36.3,32.9,29.9,28.0,25.4,76,72,63,30.09,29.74,16,3,16,0.00
2013-11-22,48.4,33.2,26.4,35.4,27.1,22.1,92,79,52,30.21,30.09,10,1,10,0.00
2013-11-23,55.6,38.8,29.3,44.7,33.7,27.0,94,83,54,30.31,30.20,8,1,8,0.00
2013-11-24,54.3,37.1,27.1,50.4,33.4,24.5,94,87,62,30.63,30.37,3,0,3,0.00
2013-11-25,55.4,33.6,24.8,47.7,30.1,23.3,94,87,57,30.66,30.61,6,0,6,0.01
2013-11-26,48.4,43.8,35.4,46.7,42.0,32.5,94,94,86,30.62,30.42,15,4,15,0.06
2013-11-27,59.4,48.9,45.9,55.6,46.1,44.0,94,90,66,30.46,30.38,11,4,11,0.01
2013-11-28,51.8,41.3,36.0,45.5,38.3,34.4,94,89,70,30.56,30.27,12,2,12,0.00
2013-11-29,47.5,43.4,40.3,44.8,36.4,30.8,94,77,63,30.26,30.00,26,6,26,0.12
2013-11-30,45.0,41.5,37.8,42.1,35.2,29.2,94,79,66,30.33,30.22,15,3,15,0.00
2013-12-1,56.7,41.8,33.4,51.9,38.9,31.9,94,90,67,30.53,30.29,9,1,9,0.01
2013-12-2,45.7,41.0,32.7,43.9,38.6,31.2,94,91,81,30.52,30.26,25,4,25,0.00
2013-12-3,48.6,45.7,37.0,46.6,43.9,35.5,94,93,90,30.26,30.04,26,7,26,0.14
2013-12-4,45.0,37.9,31.1,38.3,34.1,29.6,94,86,71,30.19,29.95,28,5,28,0.00
2013-12-5,45.9,38.3,30.2,44.2,31.8,21.3,94,78,52,30.04,29.28,50,12,50,0.63
2013-12-6,39.2,32.5,29.7,27.6,24.5,21.8,83,72,57,30.27,30.04,10,1,10,0.00
2013-12-7,42.6,35.0,31.8,41.0,32.5,27.6,94,90,83,30.17,29.97,12,2,12,0.00
2013-12-8,53.1,50.2,47.1,51.4,48.2,44.6,94,93,88,29.86,29.76,28,14,28,0.05
2013-12-9,53.1,50.9,47.7,51.4,47.7,42.4,94,89,78,30.12,29.85,28,10,28,0.00
2013-12-10,54.0,49.9,47.3,47.6,44.4,40.5,87,81,75,30.15,30.07,31,10,31,0.00
2013-12-11,52.5,47.9,38.5,48.7,43.4,33.9,89,84,76,30.17,29.96,31,8,31,0.00
2013-12-12,52.9,49.9,40.1,51.2,47.3,36.2,94,91,71,29.96,29.85,28,7,28,0.19
2013-12-13,55.2,50.6,42.4,51.7,46.9,37.1,94,87,77,29.87,29.63,24,8,24,0.00
2013-12-14,51.6,45.6,38.8,49.1,41.0,33.5,94,84,74,29.85,29.35,46,13,46,0.09
2013-12-15,49.1,43.0,39.0,44.2,39.2,34.2,94,87,73,29.78,29.45,38,8,38,0.32
2013-12-16,46.9,45.9,44.4,45.3,43.7,40.9,94,92,87,29.48,29.44,39,14,39,0.05
2013-12-17,44.2,40.2,35.8,37.3,35.1,33.7,94,82,71,30.01,29.68,26,9,26,0.02
2013-12-18,50.2,46.3,41.5,48.2,41.3,33.5,94,83,65,29.68,28.69,42,12,42,0.09
2013-12-19,45.0,38.1,34.0,36.4,33.3,31.1,94,83,65,29.40,28.74,45,16,45,0.26
2013-12-20,51.3,43.0,37.4,48.9,39.7,33.3,94,88,79,29.66,29.28,34,13,34,0.44
2013-12-21,49.6,46.7,45.5,45.6,40.1,38.4,86,78,75,29.41,29.29,45,19,45,0.01
2013-12-22,40.8,37.7,33.8,36.4,34.3,32.3,94,88,77,29.44,29.22,34,13,34,0.25
2013-12-23,48.6,40.4,34.3,45.8,37.6,30.9,94,90,79,29.43,28.26,28,9,28,0.24
2013-12-24,48.4,40.9,38.1,44.9,32.7,27.5,92,73,56,28.36,28.17,52,23,52,0.07
2013-12-25,43.3,41.2,39.2,37.4,35.3,33.5,88,79,72,28.99,28.35,46,18,46,0.09
2013-12-26,46.9,38.6,34.7,39.6,34.9,31.9,94,87,69,29.22,28.64,22,4,24,0.00
2013-12-27,46.0,43.1,38.1,42.4,39.4,34.4,94,87,77,28.64,28.12,59,19,59,0.22
2013-12-28,42.4,40.6,38.5,38.8,36.4,35.2,92,85,78,29.40,28.61,39,12,40,0.02
2013-12-29,46.0,39.0,33.1,43.0,36.2,31.5,94,90,80,29.72,29.40,20,4,20,0.08
2013-12-30,48.2,42.2,37.9,46.6,40.6,36.4,94,94,94,29.54,29.21,24,5,24,0.48
2013-12-31,43.7,40.6,35.4,42.1,38.0,33.9,94,91,83,29.54,29.20,20,5,20,0.00
2014-1-1,41.4,38.7,33.4,39.8,36.8,31.4,94,93,86,29.24,28.95,14,3,14,0.00
2014-1-2,45.9,42.3,39.6,43.3,39.6,35.6,94,90,80,29.08,28.63,26,9,26,0.00